Location: Fort Wayne
(41.1310°N, 85.1290°W)
Time: 13:17:31
(UTC-05:00)

Cosmos 2219 Rocket - Visible Passes

Search period start: 27 November 2014 00:00
Search period end: 07 December 2014 00:00
Orbit: 827 x 848 km, 71.0° (Epoch: 26 November)

Date Brightness Start Highest point End Pass type
(mag) Time Alt. Az. Time Alt. Az. Time Alt. Az.
02 Dec 4.6 20:15:53 10° NNW 20:16:21 12° NNW 20:16:21 12° NNW visible
03 Dec 4.2 19:59:38 10° NNW 20:00:53 17° N 20:00:53 17° N visible
04 Dec 3.8 19:43:24 10° NNW 19:45:32 23° N 19:45:32 23° N visible
05 Dec 3.2 19:27:09 10° NNW 19:30:21 31° N 19:30:21 31° N visible
05 Dec 5.0 21:11:45 10° NW 21:12:08 12° NW 21:12:08 12° NW visible
06 Dec 2.7 19:10:55 10° NNW 19:15:25 40° NE 19:15:25 40° NE visible
06 Dec 4.5 20:55:21 10° NW 20:57:13 18° WNW 20:57:13 18° WNW visible
